#timestamp,LO_Frequency,Hit,StdDev 
1567119615.7,286047000.7,N
1567119635.6,286046998.2,N
1567119655.4,286047001.0,N
1567119675.2,286047001.2,N
1567119695.1,286047000.1,N
1567119696.0,286047000.1,N
1567119715.8,286047001.0,N
1567119735.7,286046998.2,N
1567119755.5,286046999.4,N
1567119775.3,286046998.7,N
1567119795.2,286046999.0,N
1567119815.0,286046996.5,N
1567119815.9,286046996.5,N
1567119835.7,286046997.5,N
1567119855.6,286046998.9,N
1567119875.4,286046999.4,N
1567119895.3,286046997.4,N
1567119915.1,286046995.3,Y
1567119935.8,286046996.8,P
1567119955.7,286046996.8,N
1567119975.5,286046996.7,P
1567119995.3,286046999.4,N
1567120015.2,286046996.9,N
1567120035.0,286046997.2,N
1567120035.9,286046997.2,N
1567120055.8,286046996.5,Y
1567120075.6,286047000.3,P
1567120095.4,286047000.3,N
1567120115.3,286047002.0,N
1567120135.1,286047001.4,N
1567120155.9,286047001.4,N
1567120175.7,286047001.4,N
1567120195.5,286047001.7,N
1567120215.4,286047001.3,N
1567120235.2,286047003.8,N
1567120255.0,286047003.9,N
1567120255.9,286047003.9,N
1567120275.8,286047002.1,N
1567120295.6,286047002.5,N
1567120315.5,286047003.2,N
1567120335.3,286047001.9,N
1567120355.1,286046999.7,N
1567120375.9,286047002.6,N
1567120395.7,286047000.2,N
1567120415.5,286047000.7,N
1567120435.4,286047000.0,N
1567120455.2,286047002.4,N
1567120475.0,286047002.4,N
1567120476.0,286047002.4,N
1567120495.8,286047003.9,N
1567120515.6,286047003.8,N
1567120535.5,286047003.1,N
1567120555.3,286047002.9,N
1567120575.1,286047003.2,N
1567120595.9,286047005.4,Y
1567120615.7,286047003.1,P
1567120635.6,286047003.9,P
1567120655.6,286047004.0,P
1567120675.4,286047001.5,N
1567120695.2,286047004.4,Y
1567120715.1,286046998.5,P
1567120716.0,286046998.5,N
1567120735.8,286046998.2,N
1567120755.7,286046998.3,N
1567120775.5,286046998.6,N
1567120795.3,286047001.2,N
1567120815.2,286046999.1,N
1567120835.0,286046997.0,N
1567120835.9,286046997.0,N
1567120855.7,286046996.9,N
1567120875.6,286046998.6,N
1567120895.4,286046998.4,N
1567120915.3,286046999.5,N
1567120935.1,286046996.6,N
1567120936.0,286046996.6,N
1567120955.8,286047001.1,N
1567120975.7,286046998.2,N
1567120995.5,286046996.9,N
1567121015.3,286047001.1,N
1567121035.2,286046998.3,N
1567121055.0,286047001.2,N
1567121055.9,286047001.2,N
1567121075.8,286047000.8,N
1567121095.6,286047002.8,N
1567121115.4,286047001.6,N
1567121135.3,286047002.4,N
1567121155.1,286047004.4,N
1567121175.8,286047003.9,N
1567121195.7,286047002.3,N
1567121215.5,286047002.5,N
1567121235.4,286047001.5,N
1567121255.2,286047001.3,N
1567121275.0,286047001.5,N
1567121275.9,286047001.5,N
1567121295.8,286047002.1,N
1567121315.6,286047002.7,N
1567121335.4,286047000.9,N
1567121355.3,286046999.9,N
1567121375.1,286047002.2,N
1567121395.9,286046999.8,N
1567121415.7,286047000.9,N
1567121435.5,286046999.9,N
1567121455.4,286047001.0,N
1567121475.2,286047002.4,N
1567121495.0,286047003.9,N
1567121495.9,286047003.9,N
1567121515.8,286047003.8,N
1567121535.6,286047004.3,N
1567121555.5,286047001.7,N
1567121575.3,286047000.2,N
1567121595.1,286046999.9,N
1567121615.9,286047001.7,N
1567121635.7,286047002.2,N
1567121655.6,286047001.6,N
1567121675.4,286047002.3,N
1567121695.2,286047000.3,N
1567121715.1,286046999.9,N
1567121716.0,286046999.9,N
1567121735.8,286046999.8,N
1567121755.6,286047000.7,N
1567121775.5,286047000.0,N
1567121795.3,286047002.0,N
1567121815.2,286047003.9,N
1567121835.9,286047004.4,Y
1567121855.7,286046999.8,P
1567121875.6,286047000.6,N
1567121895.4,286046999.9,N
1567121915.2,286047000.4,N
1567121935.1,286047001.0,N
1567121936.0,286047001.0,N
1567121955.8,286047002.1,Y
1567121975.7,286046999.7,P
1567121995.5,286047001.0,N
1567122015.3,286047000.6,N
1567122035.2,286047001.1,N
1567122055.0,286046998.4,Y
1567122055.9,286046998.4,P
1567122075.8,286046996.6,P
1567122095.6,286046996.8,N
1567122115.4,286046997.1,N
1567122135.3,286046999.6,N
1567122155.1,286046997.7,N
1567122175.8,286046996.9,N
1567122195.7,286046999.2,N
1567122215.5,286046998.1,N
1567122235.4,286047000.4,N
1567122255.2,286047000.7,N
1567122275.0,286046998.2,N
1567122275.9,286046998.2,N
1567122295.8,286046999.5,N
1567122315.6,286046997.4,N
1567122335.4,286046997.1,N
1567122355.3,286046997.4,N
1567122375.1,286046999.0,N
1567122395.9,286046998.5,N
1567122415.7,286047001.0,N
1567122435.5,286046998.6,N
1567122455.4,286046998.7,N
1567122475.2,286046998.7,N
1567122495.0,286046997.0,N
1567122495.9,286046997.0,N
1567122515.8,286046996.7,N
1567122535.6,286046996.8,N
1567122555.4,286046997.4,N
1567122575.3,286046996.5,N
1567122595.1,286046996.2,N
1567122615.9,286046995.5,Y
1567122635.7,286046997.1,P
1567122655.5,286046997.1,P
1567122675.4,286046999.0,N
1567122695.2,286046998.4,N
1567122715.1,286047001.1,N
1567122716.0,286047001.1,N
1567122735.8,286047000.0,N
1567122755.6,286047000.8,N
1567122775.5,286047000.9,N
1567122795.3,286046996.8,N
1567122815.1,286046997.3,N
1567122835.9,286046997.4,N
1567122855.7,286046997.2,N
1567122875.6,286046998.3,N
1567122895.4,286046998.1,N
1567122915.2,286047000.0,N
1567122935.1,286047000.9,N
1567122936.0,286047000.9,N
1567122955.8,286047000.8,N
1567122975.6,286046998.1,N
1567122995.5,286047000.9,N
1567123015.3,286047000.3,N
1567123035.2,286047002.4,N
1567123055.9,286047004.4,N
1567123075.7,286047001.6,N
1567123095.6,286047004.4,N
1567123115.4,286047001.4,N
1567123135.2,286047002.3,N
1567123155.1,286047000.3,N
1567123156.0,286047000.3,N
1567123175.8,286046999.7,N
1567123195.7,286046998.2,N
